DW2893 Weather Reports


Display with metric or nautical units.
time (UTC)temp
F
wind
direction
speed
MPH
gust
MPH
rain 1hr
in
rain 24hr
in
rain mn
in
humidity
%
barometer
mb
20260507044805 57 50 3.0 6.0 0.00 0.23 0.23 80 1015.2
20260507043805 58 65 4.0 10.0 0.00 0.23 0.23 79 1015.3
20260507042306 58 58 3.0 6.0 0.00 0.23 0.23 78 1015.5
20260507040304 58 50 5.0 12.0 0.00 0.23 0.23 77 1015.7
20260507033805 58 42 5.0 12.0 0.00 0.23 0.23 76 1015.6
20260507033304 59 35 7.0 13.0 0.00 0.23 0.23 76 1015.5
20260507032805 59 15 6.0 12.0 0.00 0.23 0.23 76 1015.5
20260507031304 59 24 4.0 10.0 0.00 0.23 0.23 76 1015.5
20260507030804 59 33 5.0 10.0 0.00 0.23 0.23 76 1015.2
20260507024805 59 31 6.0 13.0 0.00 0.23 0.23 79 1014.9
20260507024304 59 31 7.0 14.0 0.00 0.23 0.23 79 1014.8
20260507022306 60 48 5.0 7.0 0.00 0.23 0.23 79 1014.5
20260507020804 60 51 5.0 10.0 0.00 0.23 0.23 79 1014.2
20260507020304 60 36 6.0 12.0 0.00 0.23 0.23 80 1014.2
20260507014804 60 48 6.0 8.0 0.00 0.23 0.23 80 1013.5
20260507012808 60 45 6.0 12.0 0.00 0.23 0.23 80 1013.1
20260507012308 60 43 4.0 12.0 0.00 0.23 0.23 80 1013.0
20260507011809 60 61 5.0 10.0 0.00 0.23 0.23 80 1013.0
20260507011308 60 29 7.0 12.0 0.00 0.23 0.23 79 1013.0
20260507010309 60 32 5.0 10.0 0.00 0.23 0.23 79 1013.0
20260507005809 60 40 3.0 6.0 0.00 0.23 0.23 79 1012.8
20260507005308 60 36 5.0 12.0 0.00 0.23 0.23 79 1012.8
20260507004808 60 52 4.0 9.0 0.00 0.23 0.23 79 1012.9
20260507004308 60 9 6.0 14.0 0.00 0.23 0.23 79 1012.7
20260507003808 60 30 5.0 13.0 0.00 0.23 0.23 79 1012.8
20260507003308 60 43 6.0 13.0 0.00 0.23 0.23 79 1012.6
20260507002808 60 46 6.0 12.0 0.00 0.23 0.23 78 1012.6
20260506234808 61 33 5.0 12.0 0.00 0.23 0.23 77 1012.2
20260506234308 61 35 6.0 10.0 0.00 0.23 0.23 77 1012.2
20260506233308 61 34 3.0 12.0 0.00 0.23 0.23 76 1011.9
20260506231808 61 30 6.0 12.0 0.00 0.23 0.23 76 1011.8
20260506223808 62 14 6.0 10.0 0.00 0.23 0.23 76 1011.8
20260506222808 61 42 5.0 12.0 0.00 0.23 0.23 76 1011.6
20260506221308 61 47 3.0 10.0 0.00 0.23 0.23 77 1011.7
20260506215808 61 38 5.0 8.0 0.00 0.23 0.23 76 1011.3
20260506215308 61 19 5.0 10.0 0.00 0.23 0.23 76 1011.3
20260506213807 61 35 5.0 9.0 0.00 0.23 0.23 75 1011.7
20260506213308 62 7 5.0 9.0 0.00 0.23 0.23 75 1011.7
20260506211807 61 350 6.0 10.0 0.00 0.23 0.23 76 1011.7
20260506210307 60 21 3.0 7.0 0.00 0.23 0.23 76 1011.8
20260506205307 61 19 3.0 8.0 0.00 0.23 0.23 75 1011.8
20260506201807 60 358 5.0 12.0 0.00 0.23 0.23 76 1012.1
20260506200807 60 333 5.0 12.0 0.00 0.23 0.23 77 1012.3
20260506200307 60 345 6.0 12.0 0.00 0.23 0.23 78 1012.3
20260506194807 59 39 2.0 5.0 0.00 0.23 0.23 80 1012.7
20260506194307 58 348 3.0 6.0 0.00 0.23 0.23 80 1012.8
20260506191807 57 37 3.0 6.0 0.00 0.23 0.23 80 1012.6
20260506191308 57 42 4.0 6.0 0.00 0.23 0.23 81 1012.8
20260506185807 57 56 3.0 7.0 0.00 0.23 0.23 81 1012.7
20260506183807 57 27 6.0 12.0 0.00 0.23 0.23 82 1011.4
20260506183307 57 4 5.0 12.0 0.00 0.23 0.23 83 1011.4
20260506182807 57 13 6.0 10.0 0.00 0.23 0.23 83 1011.3
20260506180807 57 353 7.0 12.0 0.00 0.23 0.23 87 1012.0
20260506175807 55 21 5.0 10.0 0.00 0.23 0.23 89 1012.0
20260506174807 54 24 7.0 12.0 0.00 0.23 0.23 89 1012.0
20260506174307 54 33 5.0 12.0 0.00 0.23 0.23 90 1012.1
20260506173807 54 53 2.0 8.0 0.00 0.23 0.23 90 1012.1
20260506173307 54 23 3.0 12.0 0.00 0.23 0.23 90 1012.1
20260506172307 53 355 5.0 13.0 0.00 0.23 0.23 91 1012.1
20260506164307 53 354 5.0 12.0 0.01 0.23 0.23 91 1013.2
20260506161307 53 30 3.0 12.0 0.23 0.23 0.23 91 1012.5
20260506155306 53 36 6.0 10.0 0.23 0.23 0.23 89 1012.5
20260506154807 53 349 6.0 12.0 0.23 0.23 0.23 89 1012.5
20260506154306 53 358 6.0 12.0 0.22 0.22 0.22 87 1012.5
20260506153306 54 12 4.0 6.0 0.10 0.10 0.10 85 1013.4
20260506152807 54 270 3.0 5.0 0.04 0.04 0.04 84 1013.4
20260506151307 54 8 5.0 12.0 0.00 0.00 0.00 83 1012.7
20260506150807 54 346 6.0 12.0 0.00 0.00 0.00 83 1012.7
20260506150306 54 11 3.0 12.0 0.00 0.00 0.00 84 1012.4
20260506145807 54 30 4.0 12.0 0.00 0.00 0.00 84 1012.7
20260506145307 54 3 6.0 10.0 0.00 0.00 0.00 84 1012.7
20260506144806 54 22 6.0 12.0 0.00 0.00 0.00 84 1012.9
20260506144307 54 18 7.0 14.0 0.00 0.00 0.00 83 1012.9
20260506143806 54 345 7.0 12.0 0.00 0.00 0.00 84 1012.9
20260506141806 53 351 5.0 13.0 0.00 0.00 0.00 85 1012.4
20260506141307 53 340 6.0 12.0 0.00 0.00 0.00 85 1012.2
20260506133306 53 7 3.0 7.0 0.00 0.00 0.00 85 1011.7
20260506132806 53 35 3.0 10.0 0.00 0.00 0.00 85 1011.7
20260506132307 53 350 5.0 12.0 0.00 0.00 0.00 85 1011.3
20260506131806 53 1 6.0 13.0 0.00 0.00 0.00 84 1011.3
20260506131306 53 4 7.0 12.0 0.00 0.00 0.00 84 1011.2
20260506130806 53 7 6.0 12.0 0.00 0.00 0.00 83 1011.4
20260506130306 53 356 8.0 15.0 0.00 0.00 0.00 83 1011.2
20260506125306 53 16 5.0 17.0 0.00 0.00 0.00 83 1011.0
20260506124806 53 341 7.0 17.0 0.00 0.00 0.00 83 1011.0
20260506123807 53 352 5.0 15.0 0.00 0.00 0.00 83 1011.0
20260506123306 53 353 3.0 13.0 0.00 0.00 0.00 83 1011.1
20260506122306 53 5 7.0 14.0 0.00 0.00 0.00 82 1011.1
20260506121306 53 0 6.0 13.0 0.00 0.00 0.00 83 1010.8
20260506120806 53 351 7.0 13.0 0.00 0.00 0.00 83 1011.0
20260506115805 53 354 6.0 10.0 0.00 0.00 0.00 83 1010.5
20260506114306 53 350 6.0 12.0 0.00 0.00 0.00 82 1010.5
20260506113806 53 1 9.0 15.0 0.00 0.00 0.00 81 1010.3
20260506112806 54 20 5.0 14.0 0.00 0.00 0.00 80 1010.1
20260506111806 54 343 7.0 15.0 0.00 0.00 0.00 79 1010.1
20260506110806 55 350 7.0 12.0 0.00 0.00 0.00 78 1009.9
20260506110306 55 3 6.0 12.0 0.00 0.00 0.00 78 1009.7
20260506105806 55 12 6.0 14.0 0.00 0.00 0.00 78 1009.7
20260506105305 55 7 9.0 15.0 0.00 0.00 0.00 78 1009.7
20260506104306 55 342 5.0 9.0 0.00 0.00 0.00 78 1009.3
20260506103806 55 2 7.0 12.0 0.00 0.00 0.00 78 1009.3
20260506102805 55 10 6.0 14.0 0.00 0.00 0.00 77 1009.3
20260506102306 55 14 6.0 12.0 0.00 0.00 0.00 77 1009.0
20260506101805 55 3 5.0 12.0 0.00 0.00 0.00 77 1008.9
20260506100305 56 354 6.0 9.0 0.00 0.00 0.00 76 1008.9
20260506095806 56 10 5.0 12.0 0.00 0.00 0.00 76 1008.9
20260506095306 56 345 7.0 12.0 0.00 0.00 0.00 76 1008.8
20260506094805 56 334 6.0 10.0 0.00 0.00 0.00 76 1008.7
20260506094306 57 358 6.0 12.0 0.00 0.00 0.00 76 1008.5
20260506093805 57 354 5.0 10.0 0.00 0.00 0.00 76 1008.6
20260506093305 57 344 5.0 9.0 0.00 0.00 0.00 76 1008.6
20260506092805 57 340 6.0 9.0 0.00 0.00 0.00 76 1008.5
20260506091306 57 344 6.0 12.0 0.00 0.00 0.00 76 1008.4
20260506090806 57 345 6.0 10.0 0.00 0.00 0.00 76 1008.3
20260506085306 57 345 5.0 8.0 0.00 0.00 0.00 76 1008.3
20260506084306 57 335 5.0 9.0 0.00 0.00 0.00 76 1008.2
20260506083306 57 341 7.0 12.0 0.00 0.00 0.00 76 1008.2
20260506082805 57 339 6.0 10.0 0.00 0.00 0.00 76 1008.1
20260506082306 57 352 5.0 12.0 0.00 0.00 0.00 76 1008.1
20260506081805 57 343 6.0 9.0 0.00 0.00 0.00 76 1008.1
20260506081305 57 345 5.0 9.0 0.00 0.00 0.00 77 1008.1
20260506080305 57 41 5.0 8.0 0.00 0.00 0.00 76 1007.7
20260506073305 58 63 3.0 6.0 0.00 0.00 0.00 77 1007.8
20260506072805 57 2 3.0 8.0 0.00 0.00 0.00 77 1007.9
20260506072306 57 36 3.0 10.0 0.00 0.00 0.00 77 1007.9
20260506070805 58 8 5.0 10.0 0.00 0.00 0.00 78 1007.9
20260506070305 58 22 5.0 9.0 0.00 0.00 0.00 78 1007.9
20260506061805 59 7 5.0 13.0 0.00 0.00 0.00 77 1007.9
20260506060306 59 1 6.0 10.0 0.00 0.00 0.00 78 1007.8
20260506051305 61 352 8.0 16.0 0.00 0.00 0.00 79 1007.8
20260506050305 61 4 6.0 14.0 0.00 0.00 0.00 79 1007.6